Weather History for Portland Troutdale, OR

Change the Weather History Date:

Tuesday, February 5, 2013

  Actual Average Record
Temperature  
Mean Temperature 48 °F 42 °F  
Max Temperature 53 °F 48 °F 62 °F (1963)
Min Temperature 43 °F 35 °F 12 °F (1989)
Degree Days  
Heating Degree Days 17 23  
Month to date heating degree days 96 117  
Cooling Degree Days 0 0  
Month to date cooling degree days 0 0  
Moisture  
Dew Point 42 °F    
Average Humidity 82    
Maximum Humidity 92    
Minimum Humidity 71    
Precipitation  
Precipitation 0.15 in 0.20 in 0.55 in (1953)
Month to date precipitation 0.15 0.95  
Year to date precipitation 3.70 7.13  
Snow  
Snow 0.00 in - - ()
Month to date snowfall 0.0  
Snow Depth 0.00 in    
Sea Level Pressure  
Sea Level Pressure 29.97 in    
Wind  
Wind Speed 5 mph (SSW)    
Max Wind Speed 18 mph    
Max Gust Speed 25 mph    
Visibility 10 miles    
Events Rain    
T = Trace of Precipitation, MM = Missing Value Source: NWS Daily Summary

Daily Weather History Graph

Daily Weather History Graph

Search for Another Location

Airport:

Trip Planner

Search our weather history database for the weather conditions in past years. The results will help you decide how hot, cold, wet, or windy it might be!

Date:

Astronomy

Feb. 05, 2013 Rise Set
Actual Time 7:25 AM PST 5:22 PM PST
Civil Twilight 6:54 AM PST 5:53 PM PST
Nautical Twilight 6:18 AM PST 6:29 PM PST
Astronomical Twilight 5:44 AM PST 7:03 PM PST
Moon 3:18 AM PST (2/5) 12:39 PM PST (2/5)
Length of Visible Light 10h 59m
Length of Day
9h 57m
Waning Crescent, 25% of the Moon is Illuminated
Feb 5
Waning Crescent
Feb 9
New
Feb 17
First Quarter
Feb 25
Full
Mar 4
Last Quarter

Hourly Weather History & Observations

Time (PST) Temp. Windchill Dew Point Humidity Pressure Visibility Wind Dir Wind Speed Gust Speed Precip Events Conditions
12:53 AM 45.0 °F - 39.9 °F 82% 29.97 in 10.0 mi Calm Calm - N/A   Overcast
1:53 AM 44.1 °F - 39.9 °F 85% 29.98 in 10.0 mi Calm Calm - N/A   Overcast
2:53 AM 45.0 °F - 39.9 °F 82% 29.98 in 10.0 mi Calm Calm - N/A   Overcast
3:53 AM 48.0 °F - 39.9 °F 74% 29.96 in 10.0 mi South 5.8 mph - N/A   Overcast
4:53 AM 46.9 °F - 39.9 °F 77% 29.95 in 10.0 mi Calm Calm - N/A   Overcast
5:53 AM 45.0 °F - 39.9 °F 82% 29.94 in 10.0 mi Calm Calm - 0.01 in Rain Light Rain
7:53 AM 44.1 °F - 42.1 °F 93% 29.94 in 10.0 mi Calm Calm - 0.01 in   Overcast
8:15 AM 44.6 °F - 42.8 °F 93% 29.94 in 10.0 mi Calm Calm - N/A   Overcast
8:53 AM 45.0 °F - 42.1 °F 90% 29.95 in 10.0 mi Calm Calm - N/A   Overcast
9:19 AM 46.4 °F - 42.8 °F 87% 29.95 in 10.0 mi Calm Calm - N/A   Overcast
9:53 AM 46.9 °F - 42.1 °F 83% 29.96 in 10.0 mi Calm Calm - 0.00 in   Overcast
10:33 AM 48.2 °F - 42.8 °F 82% 29.96 in 10.0 mi Calm Calm - N/A   Mostly Cloudy
10:53 AM 48.9 °F - 44.1 °F 83% 29.96 in 10.0 mi Calm Calm - N/A   Mostly Cloudy
11:00 AM 50.0 °F - 42.8 °F 76% 29.96 in 10.0 mi Calm Calm - N/A   Overcast
11:41 AM 51.8 °F - 42.8 °F 71% 29.96 in 10.0 mi SW 5.8 mph - 0.00 in Rain Light Rain
11:53 AM 52.0 °F - 43.0 °F 71% 29.95 in 10.0 mi SSW 3.5 mph - 0.00 in   Mostly Cloudy
12:53 PM 53.1 °F - 42.1 °F 66% 29.94 in 10.0 mi SSW 10.4 mph - 0.00 in Rain Light Rain
1:53 PM 50.0 °F - 43.0 °F 77% 29.94 in 10.0 mi SSW 12.7 mph 23.0 mph 0.00 in Rain Light Rain
2:53 PM 50.0 °F - 41.0 °F 71% 29.95 in 10.0 mi SSW 11.5 mph - 0.00 in   Scattered Clouds
3:45 PM 48.2 °F - 42.8 °F 82% 29.96 in 7.0 mi SSE 4.6 mph - 0.00 in Rain Light Rain
3:53 PM 48.9 °F - 43.0 °F 80% 29.96 in 8.0 mi SSE 6.9 mph - 0.00 in Rain Light Rain
4:14 PM 48.2 °F - 44.6 °F 87% 29.95 in 6.0 mi South 3.5 mph - 0.01 in Rain Light Rain
4:53 PM 48.0 °F - 44.1 °F 86% 29.96 in 10.0 mi Calm Calm - 0.06 in Rain Light Rain
5:19 PM 48.2 °F - 42.8 °F 82% 29.96 in 10.0 mi SSW 4.6 mph - 0.04 in Rain Light Rain
5:53 PM 48.0 °F - 43.0 °F 83% 29.97 in 10.0 mi South 4.6 mph - 0.04 in   Overcast
6:53 PM 46.9 °F - 41.0 °F 80% 29.99 in 10.0 mi South 4.6 mph - 0.00 in   Overcast
7:53 PM 46.0 °F 43.1 °F 39.9 °F 79% 30.01 in 10.0 mi South 5.8 mph - N/A   Overcast
8:53 PM 46.0 °F 41.4 °F 39.9 °F 79% 30.01 in 10.0 mi SSW 9.2 mph - 0.00 in   Mostly Cloudy
9:53 PM 46.0 °F 40.6 °F 39.9 °F 79% 30.03 in 10.0 mi SW 11.5 mph 19.6 mph N/A   Overcast
10:53 PM 46.0 °F 42.5 °F 39.9 °F 79% 30.03 in 10.0 mi SW 6.9 mph - N/A   Scattered Clouds
11:53 PM 46.9 °F - 39.9 °F 77% 30.05 in 10.0 mi SW 8.1 mph - N/A   Overcast